Stündliche Wetter Brüssel

Heute, 16 Januar, Samstag

Zeit Temperatur Niederschläge Wind Luftdruck Luftfeuchtigkeit
00:00 -2°C° 0 mm 2 m/S 769 mmHg 82%
01:00 -2°C° 0 mm 2 m/S 769 mmHg 82%
02:00 -2°C° 0 mm 2 m/S 768 mmHg 82%
03:00 -3°C° 0 mm 2 m/S 768 mmHg 82%
04:00 -3°C° 0 mm 2 m/S 768 mmHg 80%
05:00 -3°C° 0 mm 2 m/S 768 mmHg 79%
06:00 -4°C° 0 mm 3 m/S 767 mmHg 78%
07:00 -2°C° 0 mm 3 m/S 767 mmHg 77%
08:00 -3°C° 0 mm 4 m/S 766 mmHg 75%
09:00 -3°C° 0 mm 4 m/S 766 mmHg 74%
10:00 -2°C° 0 mm 5 m/S 765 mmHg 73%
11:00 -2°C° 0 mm 5 m/S 764 mmHg 73%
12:00 -2°C° 0 mm 6 m/S 764 mmHg 73%
13:00 -3°C° 0.6 mm 6 m/S 763 mmHg 80%
14:00 -3°C° 0.6 mm 6 m/S 762 mmHg 87%
15:00 -3°C° 0.6 mm 6 m/S 761 mmHg 95%
16:00 -3°C° 0.7 mm 6 m/S 760 mmHg 94%
17:00 -3°C° 0.7 mm 6 m/S 760 mmHg 94%
18:00 -2°C° 0.7 mm 6 m/S 759 mmHg 93%
19:00 -1°C° 0.4 mm 5 m/S 759 mmHg 94%
20:00 -1°C° 0.4 mm 4 m/S 759 mmHg 95%
21:00 0°C° 0.4 mm 3 m/S 759 mmHg 96%
22:00 0°C° 0 mm 3 m/S 759 mmHg 97%
23:00 0°C° 0 mm 3 m/S 759 mmHg 98%

Morgen, 17 Januar, Sonntag

Zeit Temperatur Niederschläge Wind Luftdruck Luftfeuchtigkeit
00:00 +1°C° 0 mm 2 m/S 758 mmHg 98%
01:00 +1°C° 0 mm 3 m/S 758 mmHg 98%
02:00 +2°C° 0 mm 3 m/S 758 mmHg 98%
03:00 +1°C° 0 mm 4 m/S 758 mmHg 98%
04:00 +1°C° 0 mm 4 m/S 759 mmHg 97%
05:00 +1°C° 0 mm 4 m/S 759 mmHg 95%
06:00 +2°C° 0 mm 3 m/S 759 mmHg 94%
07:00 +1°C° 0 mm 4 m/S 760 mmHg 94%
08:00 +1°C° 0 mm 4 m/S 760 mmHg 94%
09:00 +1°C° 0 mm 4 m/S 760 mmHg 94%
10:00 +1°C° 0.1 mm 4 m/S 761 mmHg 93%
11:00 +3°C° 0.1 mm 4 m/S 762 mmHg 92%
12:00 +3°C° 0.1 mm 4 m/S 762 mmHg 91%
13:00 +3°C° 0 mm 4 m/S 762 mmHg 91%
14:00 +3°C° 0 mm 4 m/S 762 mmHg 90%
15:00 +3°C° 0 mm 4 m/S 763 mmHg 89%
16:00 +1°C° 0 mm 4 m/S 763 mmHg 89%
17:00 +2°C° 0 mm 3 m/S 764 mmHg 90%
18:00 +1°C° 0 mm 3 m/S 764 mmHg 90%
19:00 +1°C° 0 mm 3 m/S 764 mmHg 90%
20:00 +1°C° 0 mm 3 m/S 765 mmHg 91%
21:00 +1°C° 0 mm 3 m/S 765 mmHg 91%
22:00 +1°C° 0 mm 3 m/S 765 mmHg 92%
23:00 +1°C° 0 mm 3 m/S 765 mmHg 93%

übermorgen, 18 Januar, Montag

Zeit Temperatur Niederschläge Wind Luftdruck Luftfeuchtigkeit
00:00 0°C° 0 mm 3 m/S 765 mmHg 94%
01:00 +1°C° 0 mm 3 m/S 765 mmHg 94%
02:00 +1°C° 0 mm 3 m/S 765 mmHg 94%
03:00 0°C° 0 mm 4 m/S 765 mmHg 95%
04:00 0°C° 0 mm 3 m/S 765 mmHg 95%
05:00 0°C° 0 mm 3 m/S 765 mmHg 94%
06:00 0°C° 0 mm 3 m/S 765 mmHg 94%
07:00 -1°C° 0 mm 4 m/S 765 mmHg 94%
08:00 -1°C° 0 mm 4 m/S 765 mmHg 93%
09:00 0°C° 0 mm 5 m/S 765 mmHg 93%
10:00 +1°C° 0 mm 5 m/S 765 mmHg 91%
11:00 +2°C° 0 mm 5 m/S 765 mmHg 89%
12:00 +2°C° 0 mm 6 m/S 764 mmHg 87%
13:00 +2°C° 0 mm 6 m/S 764 mmHg 87%
14:00 +2°C° 0 mm 5 m/S 764 mmHg 88%
15:00 +2°C° 0 mm 5 m/S 763 mmHg 88%
16:00 +2°C° 0 mm 5 m/S 763 mmHg 89%
17:00 +2°C° 0 mm 5 m/S 763 mmHg 90%
18:00 +2°C° 0 mm 6 m/S 763 mmHg 91%
19:00 +1°C° 0 mm 6 m/S 763 mmHg 90%
20:00 +1°C° 0 mm 6 m/S 762 mmHg 90%
21:00 +1°C° 0 mm 6 m/S 762 mmHg 89%
22:00 +1°C° 0 mm 6 m/S 761 mmHg 89%
23:00 0°C° 0 mm 7 m/S 761 mmHg 88%

19 Januar, Dienstag

Zeit Temperatur Niederschläge Wind Luftdruck Luftfeuchtigkeit
00:00 0°C° 0 mm 7 m/S 760 mmHg 88%
01:00 0°C° 0.1 mm 7 m/S 759 mmHg 88%
02:00 0°C° 0.1 mm 8 m/S 758 mmHg 88%
03:00 0°C° 0.1 mm 9 m/S 757 mmHg 87%
04:00 +1°C° 0.6 mm 9 m/S 756 mmHg 88%
05:00 +1°C° 0.6 mm 10 m/S 755 mmHg 89%
06:00 +2°C° 0.6 mm 10 m/S 754 mmHg 89%
07:00 +2°C° 0 mm 10 m/S 754 mmHg 89%
08:00 +3°C° 0 mm 10 m/S 754 mmHg 88%
09:00 +5°C° 0 mm 9 m/S 754 mmHg 88%
10:00 +5°C° 0 mm 9 m/S 754 mmHg 87%
11:00 +5°C° 0 mm 9 m/S 754 mmHg 85%
12:00 +6°C° 0 mm 9 m/S 754 mmHg 84%
13:00 +6°C° 0 mm 9 m/S 753 mmHg 84%
14:00 +6°C° 0 mm 9 m/S 753 mmHg 83%
15:00 +6°C° 0 mm 9 m/S 752 mmHg 82%
16:00 +5°C° 0 mm 9 m/S 752 mmHg 83%
17:00 +5°C° 0 mm 9 m/S 751 mmHg 84%
18:00 +5°C° 0 mm 9 m/S 751 mmHg 84%
19:00 +5°C° 0 mm 9 m/S 751 mmHg 83%
20:00 +5°C° 0 mm 9 m/S 750 mmHg 81%
21:00 +5°C° 0 mm 10 m/S 749 mmHg 79%
22:00 +5°C° 0.1 mm 10 m/S 749 mmHg 79%
23:00 +5°C° 0.1 mm 10 m/S 748 mmHg 79%

20 Januar, Mittwoch

Zeit Temperatur Niederschläge Wind Luftdruck Luftfeuchtigkeit
00:00 +6°C° 0.1 mm 10 m/S 747 mmHg 79%
01:00 +6°C° 0 mm 10 m/S 747 mmHg 79%
02:00 +5°C° 0 mm 10 m/S 746 mmHg 78%
03:00 +5°C° 0 mm 10 m/S 746 mmHg 78%
04:00 +6°C° 0.1 mm 10 m/S 745 mmHg 78%
05:00 +6°C° 0.1 mm 11 m/S 745 mmHg 77%
06:00 +6°C° 0.1 mm 11 m/S 745 mmHg 77%
07:00 +6°C° 0.1 mm 11 m/S 744 mmHg 77%
08:00 +6°C° 0.1 mm 11 m/S 744 mmHg 76%
09:00 +6°C° 0.1 mm 10 m/S 744 mmHg 76%
10:00 +6°C° 0.2 mm 11 m/S 743 mmHg 73%
11:00 +6°C° 0.2 mm 11 m/S 743 mmHg 69%
12:00 +6°C° 0.2 mm 11 m/S 742 mmHg 66%
13:00 +6°C° 0.1 mm 11 m/S 742 mmHg 69%
14:00 +6°C° 0.1 mm 11 m/S 741 mmHg 71%
15:00 +6°C° 0.1 mm 11 m/S 740 mmHg 74%
16:00 +6°C° 0.2 mm 11 m/S 740 mmHg 75%
17:00 +6°C° 0.2 mm 11 m/S 740 mmHg 76%
18:00 +6°C° 0.2 mm 11 m/S 739 mmHg 77%
19:00 +6°C° 0.4 mm 11 m/S 739 mmHg 79%
20:00 +7°C° 0.4 mm 11 m/S 739 mmHg 80%
21:00 +7°C° 0.4 mm 11 m/S 739 mmHg 82%
22:00 +6°C° 1.2 mm 10 m/S 739 mmHg 85%
23:00 +5°C° 1.2 mm 9 m/S 739 mmHg 87%

21 Januar, Donnerstag

Zeit Temperatur Niederschläge Wind Luftdruck Luftfeuchtigkeit
00:00 +5°C° 1.2 mm 7 m/S 739 mmHg 90%
01:00 +4°C° 1.5 mm 7 m/S 739 mmHg 89%
02:00 +3°C° 1.5 mm 7 m/S 740 mmHg 88%
03:00 +2°C° 1.5 mm 6 m/S 740 mmHg 86%
04:00 +2°C° 0 mm 7 m/S 741 mmHg 86%
05:00 +2°C° 0 mm 7 m/S 742 mmHg 86%
06:00 +2°C° 0 mm 7 m/S 743 mmHg 86%
07:00 +1°C° 0 mm 8 m/S 743 mmHg 84%
08:00 +2°C° 0 mm 9 m/S 744 mmHg 83%
09:00 +2°C° 0 mm 10 m/S 744 mmHg 81%
10:00 +3°C° 0.1 mm 9 m/S 744 mmHg 77%
11:00 +3°C° 0.1 mm 9 m/S 745 mmHg 74%
12:00 +5°C° 0.1 mm 9 m/S 745 mmHg 71%
13:00 +5°C° 0.1 mm 8 m/S 746 mmHg 70%
14:00 +5°C° 0.1 mm 7 m/S 746 mmHg 69%
15:00 +5°C° 0.1 mm 7 m/S 746 mmHg 69%
16:00 +4°C° 0 mm 6 m/S 746 mmHg 74%
17:00 +4°C° 0 mm 6 m/S 747 mmHg 78%
18:00 +3°C° 0 mm 5 m/S 747 mmHg 83%
19:00 +3°C° 0 mm 5 m/S 747 mmHg 85%
20:00 +3°C° 0 mm 5 m/S 747 mmHg 86%
21:00 +3°C° 0 mm 5 m/S 747 mmHg 87%
22:00 +3°C° 0 mm 5 m/S 747 mmHg 88%
23:00 +4°C° 0 mm 4 m/S 747 mmHg 89%
Mehr zeigen

Wir brauchen deine Erlaubnis

Meteoprog und unser Service Anbieter werden persönliche Daten aufbewahren, so wie Cookies, Geräte Bezeichnung oder ähnliche Technologien von deinem Gerät und Prozess, so wie Persönliche Daten Inhalte und Werbungen, genauso wie social Media und den Verkehr zu analysieren.

  • Aufbewahrung und/oder Zugang zu deiner Geräte Informationen.

    Cookies, Geräte Bezeichnung oder andere Informationen, können aufbewahrt oder Zugang zu deinem Gerät erhalten, für den Grund, der oben angegeben wird.

  • Personalisierte Werbung und Inhalte, Messungen, Einblick in das Publikum und Produkt Entwicklung.

    Werbungen und Inhalte können personalisiert werden, basierend auf ein Profil. Mehr Daten können besser personalisierte Werbungen und Inhalte hinzufügen. Werbung und Inhalte können gezeigt und gemessen werden. Einblicke über das Publikum, welche die Werbung gesehen haben und den Inhalt, können abgeleitet werden. So wie Daten können genutzt werden, um es zu verbessern oder die Benutzer Erfahrung zu verbessern das System und die Software.

Wenn du “Ich stimme zu” klickst, erlaubst du uns, die Cookies zu benutzen die Geräte Bezeichnung, den Web oder ähnliche Technologien zu benutzen. Deine Settings, können in deinem Gerät bei deinem Browser geändert werden.

Für den bestimmten Zweck, berechtigten Interessen beruhen darauf, mehr als auf den Inhalt. Du kannst mehr darüber in unseren Privaten und Cookie Politik lesen.